Satellite-Ground Cal/Val Region Overpasses Predictions

Prediction of Satellite NPP Overpassing Cal/Val Region: PacNW

Region Location: (Latitude: 10.00, Longitude: 139.50) to (Latitude: 22.70, Longitude: 165.60).

Table of predicted overpasses for the next 14.0 days since TLE Epoch: 10/22/2015
Interval Starting Time Starting Location Ending Time Ending Location
1 10/23/2015 03:39:13 ( 10.05, 145.63) 10/23/2015 03:42:48 ( 22.67, 142.63)
2 10/23/2015 14:32:42 ( 11.67, 165.59) 10/23/2015 14:33:10 ( 10.02, 165.22)
3 10/23/2015 16:11:04 ( 22.69, 142.85) 10/23/2015 16:14:40 ( 10.01, 139.84)
4 10/24/2015 03:20:10 ( 10.05, 150.38) 10/24/2015 03:23:45 ( 22.67, 147.39)
5 10/24/2015 15:52:02 ( 22.69, 147.61) 10/24/2015 15:55:38 ( 10.01, 144.60)
6 10/25/2015 03:01:08 ( 10.06, 155.14) 10/25/2015 03:04:43 ( 22.68, 152.14)
7 10/25/2015 15:33:00 ( 22.68, 152.36) 10/25/2015 15:36:36 ( 10.00, 149.35)
8 10/26/2015 02:42:04 ( 10.01, 159.91) 10/26/2015 02:45:40 ( 22.69, 156.90)
9 10/26/2015 15:13:57 ( 22.67, 157.12) 10/26/2015 15:17:32 ( 10.05, 154.12)
10 10/27/2015 02:23:02 ( 10.01, 164.66) 10/27/2015 02:26:38 ( 22.70, 161.65)
11 10/27/2015 14:54:55 ( 22.67, 161.87) 10/27/2015 14:58:30 ( 10.04, 158.88)
12 10/28/2015 03:45:29 ( 10.03, 144.04) 10/28/2015 03:49:04 ( 22.66, 141.04)
13 10/28/2015 14:37:04 ( 18.43, 165.59) 10/28/2015 14:39:27 ( 10.04, 163.63)
14 10/28/2015 16:17:22 ( 22.65, 141.25) 10/28/2015 16:19:25 ( 15.43, 139.50)
15 10/29/2015 03:26:27 ( 10.04, 148.79) 10/29/2015 03:30:02 ( 22.67, 145.80)
16 10/29/2015 15:58:19 ( 22.70, 146.02) 10/29/2015 16:01:55 ( 10.02, 143.01)
17 10/30/2015 03:07:24 ( 10.06, 153.55) 10/30/2015 03:10:59 ( 22.68, 150.55)
18 10/30/2015 15:39:16 ( 22.68, 150.77) 10/30/2015 15:42:52 ( 10.00, 147.76)
19 10/31/2015 02:48:21 ( 10.01, 158.32) 10/31/2015 02:51:57 ( 22.69, 155.31)
20 10/31/2015 15:20:14 ( 22.67, 155.53) 10/31/2015 15:23:49 ( 10.05, 152.53)
21 11/01/2015 02:29:19 ( 10.02, 163.07) 11/01/2015 02:32:53 ( 22.65, 160.08)
22 11/01/2015 15:01:11 ( 22.66, 160.28) 11/01/2015 15:04:46 ( 10.04, 157.29)
23 11/02/2015 02:12:58 ( 19.55, 165.59) 11/02/2015 02:13:51 ( 22.66, 164.83)
24 11/02/2015 03:51:46 ( 10.05, 142.45) 11/02/2015 03:55:17 ( 22.44, 139.51)
25 11/02/2015 14:42:09 ( 22.64, 165.03) 11/02/2015 14:45:44 ( 10.02, 162.04)
26 11/02/2015 16:23:38 ( 22.69, 139.67) 11/02/2015 16:23:49 ( 22.05, 139.51)
27 11/03/2015 03:32:43 ( 10.00, 147.21) 11/03/2015 03:36:19 ( 22.69, 144.21)
28 11/03/2015 16:04:35 ( 22.68, 144.43) 11/03/2015 16:08:10 ( 10.06, 141.43)
29 11/04/2015 03:13:40 ( 10.02, 151.97) 11/04/2015 03:17:15 ( 22.65, 148.97)
30 11/04/2015 15:45:33 ( 22.66, 149.18) 11/04/2015 15:49:08 ( 10.04, 146.19)
31 11/05/2015 02:54:38 ( 10.04, 156.72) 11/05/2015 02:58:13 ( 22.66, 153.73)


NCC Satellite Cal/Val Overpasses Prediction Service
